Regional Weather Roundup
Issued by NWS State College, PA

Home | Current Version | Previous Version | Text Only | Print | Product List | Glossary Off
Versions: 1 2 3 4 5 6 7 8 9 10 11 12 13 14 15 16 17 18 19 20 21 22 23 24 25 26 27 28 29 30 31 32 33 34 35 36 37 38 39 40 41 42 43 44 45 46 47 48 49 50

000
ASUS41 KCTP 041110
RWRCTP

REGIONAL WEATHER ROUNDUP
NATIONAL WEATHER SERVICE STATE COLLEGE PA
700 AM EDT SAT JUL 04 2015

Note: "fair" indicates few or no clouds below 12,000 feet with no
significant weather and/or obstructions to visibility.

* = STATION THAT DOES NOT REPORT PRECIPITATION /E.G. RAIN...SNOW...ETC/
    THUNDER OR FOG.

PAZ002>004-007>009-013>016-020>023-029>032-041200-
WESTERN PENNSYLVANIA

CITY           SKY/WX    TMP DP  RH WIND       PRES   REMARKS
ERIE           SUNNY     59  54  83 CALM      29.91R
MEADVILLE      MOSUNNY   60  54  80 CALM      29.92R
FRANKLIN*      CLOUDY    63  59  88 N3        29.93R VSB 1/4
NEW CASTLE     PTSUNNY   65  65 100 CALM      29.91R
BEAVER COUNTY  NOT AVBL
BUTLER*        PTSUNNY   64  63  94 NE3       29.91R
PITTSBURGH INT CLOUDY    66  64  93 N3        29.89R FOG
PITTSBURGH     FOG       64  61  90 NW7       29.88R VSB 3/4
INDIANA*       CLOUDY    64  64 100 CALM      29.92R FOG
LATROBE        CLOUDY    64  64 100 CALM      29.89  FOG
WASHINGTON CO* NOT AVBL
$$

PAZ004>006-010>012-017>019-024>028-033>037-041-042-045-046-049>053-041200-
CENTRAL PENNSYLVANIA

CITY           SKY/WX    TMP DP  RH WIND       PRES   REMARKS
BRADFORD       CLOUDY    62  60  93 N5        29.94R FOG
DUBOIS         CLOUDY    65  62  90 N6        29.91R FOG
CLEARFIELD     LGT RAIN  63  61  93 E3        29.91R FOG
JOHNSTOWN      RAIN      62  61  96 S5        29.91R FOG
ALTOONA        CLOUDY    63  61  93 CALM      29.91R
STATE COLLEGE  RAIN      63  61  94 CALM      29.92R FOG
WILLIAMSPORT   RAIN      63  59  87 NE12      29.93R
SELINSGROVE    LGT RAIN  63  61  93 NE3       29.94S FOG
FT INDIANTOWN  CLOUDY    62  61  96 NE2       29.92S
CAPITAL CITY   LGT RAIN  66  62  87 E3        29.91R FOG
HARRISBURG     LGT RAIN  67  63  87 CALM      29.91R FOG
YORK           RAIN      66  65  96 CALM      29.91S FOG
$$

PAZ038>040-043-044-047-048-054-055-060>062-067>071-041200-
EASTERN PENNSYLVANIA

CITY           SKY/WX    TMP DP  RH WIND       PRES   REMARKS
SCRANTON       LGT RAIN  63  59  87 E3        29.96R FOG
MOUNT POCONO   LGT RAIN  61  58  90 SE6       29.98S FOG
ALLENTOWN      CLOUDY    69  63  81 E7        29.94S
QUAKERTOWN*    CLOUDY    66  64  94 CALM      29.95R
READING        LGT RAIN  66  63  90 CALM      29.91S
LANCASTER      CLOUDY    66  64  93 E5        29.91S FOG
COATESVILLE    CLOUDY    66  66 100 CALM      29.93S FOG
POTTSTOWN      CLOUDY    67  65  93 E6        29.93S
BLUE BELL      CLOUDY    68  66  94 E6        29.91F
DOYLESTOWN     CLOUDY    65  63  93 CALM      29.93S
WILLOW GROVE   NOT AVBL
NORTH PHILA    CLOUDY    69  64  84 NE5       29.93F
PHILADELPHIA   CLOUDY    70  66  87 E7        29.91F
$$



USA.gov is the U.S. government's official web portal to all federal, state and local government web resources and services.